Weather History for FVHA - January, 2012

Change the Weather History Date:

Thursday, January 5, 2012

  Actual Average Record
Temperature  
Mean Temperature 73 °F -  
Max Temperature 84 °F 79 °F 86 °F (2005)
Min Temperature 62 °F 60 °F 59 °F (2015)
Cooling Degree Days 8    
Growing Degree Days 23 (Base 50)    
Moisture  
Dew Point 59 °F    
Average Humidity 67    
Maximum Humidity 94    
Minimum Humidity 30    
Precipitation  
Precipitation 0.00 in 0.24 in - ()
Sea Level Pressure  
Sea Level Pressure 30.13 in    
Wind  
Wind Speed 6 mph ()    
Max Wind Speed 9 mph    
Max Gust Speed -    
Visibility 11.7 miles    
Events      
Averages and records for this station are not official NWS values.
T = Trace of Precipitation, MM = Missing Value Source: Averaged Metar Reports

Daily Weather History Graph

Daily Weather History Graph

Search for Another Location

Airport or City:

Trip Planner

Search our weather history database for the weather conditions in past years. The results will help you decide how hot, cold, wet, or windy it might be!

Date:

Astronomy

Jan. 05, 2012 Rise Set
Actual Time 5:25 AM CAT 6:35 PM CAT
Civil Twilight 5:01 AM CAT 6:59 PM CAT
Nautical Twilight 4:33 AM CAT 7:27 PM CAT
Astronomical Twilight 4:03 AM CAT 7:57 PM CAT
Moon 3:23 PM CAT (1/5) 1:58 AM CAT (1/5)
Length of Visible Light 13h 57m
Length of Day
13h 09m
Waxing Gibbous, 85% of the Moon is Illuminated
Jan 5
Waxing Gibbous
Jan 9
Full
Jan 16
Last Quarter
Jan 23
New
Jan 31
First Quarter

Hourly Weather History & Observations

Time (CAT) Temp. Heat Index Dew Point Humidity Pressure Visibility Wind Dir Wind Speed Gust Speed Precip Events Conditions
12:00 AM 66.2 °F - 62.6 °F 88% 30.15 in - ESE 6.9 mph - N/A   Clear
2:00 AM 65 °F - 61 °F 84%  in 19 mi East 4.6 mph - -   Partly Cloudy
2:00 AM 64.4 °F - 60.8 °F 88% 30.12 in - East 4.6 mph - N/A   Clear
3:00 AM 64.4 °F - 60.8 °F 88% 30.12 in - ESE 4.6 mph - N/A   Clear
4:00 AM 62.6 °F - 60.8 °F 94% 30.12 in - ESE 6.9 mph - N/A   Clear
5:00 AM 62.6 °F - 60.8 °F 94% 30.12 in - East 5.8 mph - N/A   Clear
6:00 AM 62.6 °F - 60.8 °F 94% 30.12 in - East 6.9 mph - N/A   Clear
7:00 AM 68.0 °F - 60.8 °F 78% 30.15 in - East 9.2 mph - N/A   Clear
8:00 AM 71 °F - 60 °F 61%  in 19 mi ESE 6.9 mph - -   Scattered Clouds
8:00 AM 71.6 °F - 60.8 °F 69% 30.15 in 6.2 mi ESE 6.9 mph - N/A   Mostly Cloudy
9:00 AM 73.4 °F - 59.0 °F 61% 30.15 in 6.2 mi ESE 9.2 mph - N/A   Scattered Clouds
10:00 AM - - - N/A% 30.15 in 6.2 mi ESE 5.8 mph - N/A   Scattered Clouds
12:00 PM 78.8 °F - 57.2 °F 47% 30.12 in 6.2 mi East 6.9 mph - N/A   Scattered Clouds
2:00 PM 84 °F - 57 °F 30%  in 19 mi SSE 6.9 mph - -   Mostly Cloudy
2:00 PM 84.2 °F 83.5 °F 57.2 °F 40% 30.09 in - SSE 6.9 mph - N/A   Clear
3:00 PM 84.2 °F - 51.8 °F 33% 30.06 in - SSE 8.1 mph - N/A   Clear
4:00 PM 84.2 °F 82.8 °F 53.6 °F 35% 30.36 in - SE 9.2 mph - N/A   Clear
5:00 PM 84.2 °F 82.8 °F 53.6 °F 35% 30.06 in - SE 9.2 mph - N/A   Clear
6:00 PM 78.8 °F - 55.4 °F 44% 30.06 in - SSE 8.1 mph - N/A   Clear
7:00 PM 75.2 °F - 62.6 °F 65% 30.09 in - SSE 5.8 mph - N/A   Clear
9:00 PM 69.8 °F - 59.0 °F 68% 30.15 in - ESE 8.1 mph - N/A   Clear
10:00 PM 66.2 °F - 62.6 °F 88% 30.15 in - East 4.6 mph - N/A   Clear
11:00 PM 66.2 °F - 64.4 °F 94% 30.18 in - ESE 3.5 mph - N/A   Clear